This is the latest recevied weather packets stored in our database for station/object KD0SBN. If no packets are shown the sender has not sent any weather packets the latest 10 day(s).
| Time | Temp. | Humidity | Pressure | Rain* | Wind** | Luminosity | Snow |
|---|---|---|---|---|---|---|---|
| 1778230934 | 12.78° C | 57% | 1014.3 hPa | 0 mm | - | - | - |
| 1778230630 | 12.78° C | 57% | 1014.3 hPa | 0 mm | - | - | - |
| 1778230327 | 13.33° C | 56% | 1014.2 hPa | 0 mm | - | - | - |
| 1778230023 | 13.33° C | 55% | 1014.3 hPa | 0 mm | - | - | - |
| 1778229721 | 13.33° C | 55% | 1014.1 hPa | 0 mm | - | - | - |
| 1778229418 | 13.33° C | 55% | 1014.1 hPa | 0 mm | - | - | - |
| 1778229115 | 13.89° C | 54% | 1014.3 hPa | 0 mm | - | - | - |
| 1778228810 | 13.33° C | 54% | 1014.2 hPa | 0 mm | - | - | - |
| 1778228508 | 13.33° C | 56% | 1014.3 hPa | 0 mm | - | - | - |
| 1778228205 | 13.89° C | 55% | 1014.3 hPa | 0 mm | - | - | - |
| 1778227901 | 14.44° C | 54% | 1014.3 hPa | 0 mm | - | - | - |
| 1778227599 | 14.44° C | 52% | 1014.3 hPa | 0 mm | - | - | - |
| 1778227297 | 14.44° C | 53% | 1014.4 hPa | 0 mm | - | - | - |
| 1778226993 | 14.44° C | 54% | 1014.4 hPa | 0 mm | - | - | - |
| 1778226690 | 15° C | 51% | 1014.2 hPa | 0 mm | - | - | - |
| 1778226388 | 15.56° C | 50% | 1014.4 hPa | 0 mm | - | - | - |
| 1778226084 | 16.11° C | 48% | 1014.3 hPa | 0 mm | - | - | - |
| 1778225782 | 14.44° C | 47% | 1014.2 hPa | 0 mm | - | - | - |
| 1778225480 | 14.44° C | 52% | 1014.4 hPa | 0 mm | - | - | - |
| 1778225174 | 15° C | 52% | 1014.5 hPa | 0 mm | - | - | - |
| 1778224872 | 14.44° C | 54% | 1014.4 hPa | 0 mm | - | - | - |
| 1778224570 | 14.44° C | 53% | 1014.4 hPa | 0 mm | - | - | - |
| 1778224268 | 14.44° C | 55% | 1014.4 hPa | 0 mm | - | - | - |
| 1778223965 | 14.44° C | 54% | 1014.2 hPa | 0 mm | - | - | - |
| 1778223663 | 13.89° C | 56% | 1014.4 hPa | 0 mm | - | - | - |
* Rain latest hour (hover to see other rain measurements)
** Current wind speed in m/s (hover to see current wind gust speed)